Regional Weather Roundup
Issued by NWS

Home | Current Version | Previous Version | Graphics & Text | Print | Product List | Glossary On
Versions: 1 2 3 4 5 6 7 8 9 10 11 12 13 14 15 16 17 18 19 20 21 22 23 24 25 26 27 28 29 30 31 32 33 34 35 36 37 38 39 40 41 42 43 44 45 46 47 48 49
000
ASUS45 KSLC 201210
RWRUT

UTAH REGIONAL WEATHER ROUNDUP
NATIONAL WEATHER SERVICE SALT LAKE CITY UT
600 AM MDT SAT SEP 20 2014

UTZ001>011-023>025-201300-

NORTHERN UTAH

CITY           SKY/WX    TMP DP  RH WIND       PRES   REMARKS
HILL AFB       CLEAR     59  44  56 E14       30.16R
LOGAN          CLEAR     48  46  93 W6        30.18R
OGDEN          CLEAR     58  45  62 S5        30.13S
PROVO AIRPORT  CLEAR     59  48  67 CALM      30.16S
SALT LAKE CITY CLEAR     60  51  72 CALM      30.12S
VERNAL         CLEAR     55  42  61 W8        30.18R
WENDOVER       CLEAR     64  45  48 CALM      30.14R
HEBER CITY     CLEAR     43  41  93 CALM      30.25R
WEST JORDAN    CLEAR     57  45  62 CALM      30.15R

$$

UTZ012>022-026-027-201300-

SOUTHERN UTAH

CITY           SKY/WX    TMP DP  RH WIND       PRES   REMARKS
BRYCE CANYON   CLEAR     45  42  89 W10       30.31R
CEDAR CITY     CLEAR     55  46  71 E3        30.15S
MILFORD        CLEAR     58  44  60 N6        30.13R
MOAB/CYNLANDS  CLEAR     60  42  51 CALM      30.06R
PRICE          CLEAR     67  42  40 N7        30.18R
ST GEORGE      SUNNY     70  45  40 SE7       29.98R
KANAB            N/A     55  45  67 NE3       30.14R

$$

REGIONAL REPORTS     COLORADO/ARIZONA

CITY           SKY/WX    TMP DP  RH WIND       PRES   REMARKS
CRAIG, CO      CLEAR     39  37  92 E3        30.28R
GRAND JUNCTION CLEAR     59  43  55 SE9       30.12R
RIFLE          CLEAR     52  43  71 S3        30.21R
MONTROSE       CLEAR     56  44  64 SE6       30.20R
CORTEZ         CLEAR     49  44  83 E3        30.15R
PAGE, AZ       CLEAR     69  49  48 SE3       30.05R
GRAND CANYON   MOCLDY    50  47  89 NE5       30.21S
KINGMAN        CLOUDY    71  48  43 CALM      29.99S
FLAGSTAFF        N/A     47  45  93 CALM      30.23S

$$

REGIONAL REPORTS    NEVADA/IDAHO/WYOMING

CITY           SKY/WX    TMP DP  RH WIND       PRES   REMARKS
LAS VEGAS, NV  CLOUDY    80  41  24 SW5       29.87R
ELY            CLEAR     45  34  65 S12       30.24R
ELKO           CLEAR     50  37  61 CALM      30.17R
POCATELLO, ID  CLEAR     45  43  93 N3        30.20R
BURLEY         CLEAR     48  42  80 CALM      30.16R
EVANSTON, WY   CLEAR     50  37  61 E6        30.31R
ROCK SPRINGS   PTCLDY    50  35  56 NW3       30.30R

$$



USA.gov is the U.S. government's official web portal to all federal, state and local government web resources and services.